Location: Home
(42.5358°N, 72.7383°W)
Time: 19:57:19
(UTC-05:00)

Explorer 7 - Pass Details

Date: 07 December 2021
Orbit: 483 x 674 km, 50.3° (Epoch: 23 January)

Event Time Altitude Azimuth Distance (km) Brightness Sun altitude
Rises 06:53:46 0° 285° (WNW) 2,793 - -3.0°
Exits shadow 06:54:36 - 288° (WNW) 2,484 9.5 -2.9°
Reaches altitude 10° 06:56:22 10° 298° (WNW) 1,857 8.8 -2.6°
Maximum altitude 06:59:59 27° 357° (N) 1,063 8.0 -2.0°
Drops below altitude 10° 07:03:26 10° 56° (ENE) 1,761 9.8 -1.5°
Sets 07:05:50 0° 69° (ENE) 2,619 10.9 -1.1°
